Total_Precipitation_Accumulation
0.04 0.04 0.03 0.03 0.04 0.06 0.06 0.05 0.05 0.06 0.08 0.09 0.10 0.11 0.13 0.13 0.14 0.12 0.10 0.09 0.08 0.08 0.13 0.25 0.44 0.62 0.76 0.89 0.98 0.88 0.82 0.61 0.28 0.10 0.07 0.10 0.07 0.05 0.05 0.06 0.06 0.06 0.07
0.01 0.01 0.01 0.02 0.02 0.02 0.02 0.01 0.01 0.01 0.01 0.03 0.04 0.06 0.09 0.10 0.11 0.13 0.13 0.14 0.12 0.10 0.11 0.16 0.27 0.50 0.69 0.80 0.94 1.05 0.92 0.86 0.64 0.30 0.11 0.08 0.07 0.05 0.04 0.05 0.06 0.07 0.07
0.00 0.00 0.01 0.01 0.01 0.01 0.01 0.00 0.00 0.00 0.00 0.00 0.01 0.01 0.02 0.05 0.07 0.08 0.11 0.15 0.17 0.15 0.14 0.15 0.17 0.31 0.55 0.73 0.84 1.06 1.11 0.97 0.94 0.72 0.36 0.13 0.08 0.06 0.05 0.04 0.05 0.07 0.08
0.00 0.00 0.00 0.00 0.00 0.00 0.00 0.00 0.00 0.00 0.00 0.00 0.00 0.00 0.00 0.01 0.02 0.03 0.05 0.10 0.18 0.21 0.19 0.18 0.18 0.19 0.36 0.58 0.80 0.98 1.35 1.22 1.07 1.06 0.85 0.43 0.16 0.09 0.06 0.05 0.05 0.07 0.07
0.00 0.00 0.00 0.00 0.00 0.00 0.00 0.00 0.00 0.00 0.00 0.00 0.00 0.00 0.00 0.00 0.01 0.02 0.03 0.05 0.09 0.17 0.23 0.23 0.22 0.18 0.23 0.40 0.62 0.85 1.26 1.56 1.34 1.18 1.09 0.85 0.47 0.23 0.12 0.08 0.06 0.06 0.07
0.00 0.00 0.00 0.00 0.00 0.00 0.00 0.00 0.00 0.00 0.00 0.00 0.00 0.00 0.00 0.00 0.00 0.01 0.02 0.04 0.05 0.09 0.17 0.24 0.26 0.20 0.16 0.19 0.35 0.66 0.99 1.38 1.57 1.41 1.27 1.11 0.85 0.52 0.31 0.18 0.11 0.10 0.09
0.00 0.00 0.00 0.00 0.00 0.00 0.00 0.00 0.00 0.01 0.01 0.01 0.02 0.00 0.00 0.00 0.00 0.00 0.00 0.01 0.03 0.05 0.09 0.18 0.26 0.24 0.19 0.17 0.17 0.28 0.58 1.01 1.39 1.56 1.53 1.37 1.16 0.86 0.54 0.35 0.24 0.18 0.14
0.00 0.00 0.00 0.00 0.00 0.00 0.00 0.01 0.01 0.02 0.02 0.02 0.05 0.07 0.02 0.00 0.00 0.00 0.00 0.00 0.01 0.02 0.05 0.10 0.19 0.24 0.24 0.19 0.13 0.14 0.24 0.55 0.98 1.33 1.53 1.58 1.43 1.20 0.82 0.52 0.33 0.25 0.21
0.00 0.00 0.00 0.00 0.00 0.00 0.01 0.01 0.02 0.04 0.06 0.04 0.06 0.17 0.17 0.07 0.02 0.00 0.00 0.00 0.00 0.01 0.02 0.06 0.12 0.20 0.26 0.26 0.20 0.16 0.15 0.27 0.58 0.97 1.25 1.46 1.54 1.49 1.19 0.75 0.44 0.27 0.20
0.00 0.00 0.00 0.00 0.00 0.00 0.01 0.03 0.03 0.05 0.09 0.09 0.07 0.10 0.15 0.16 0.14 0.05 0.01 0.01 0.01 0.01 0.01 0.02 0.06 0.12 0.20 0.27 0.29 0.26 0.21 0.17 0.31 0.55 0.85 1.15 1.38 1.52 1.52 1.08 0.62 0.35 0.22
0.00 0.00 0.00 0.00 0.00 0.00 0.02 0.03 0.05 0.07 0.11 0.14 0.13 0.12 0.11 0.09 0.10 0.13 0.05 0.01 0.02 0.03 0.03 0.03 0.04 0.08 0.14 0.22 0.28 0.29 0.28 0.20 0.23 0.37 0.55 0.84 1.10 1.38 1.63 1.45 0.87 0.47 0.27
0.00 0.00 0.00 0.00 0.00 0.00 0.01 0.03 0.06 0.08 0.11 0.13 0.15 0.16 0.17 0.17 0.12 0.14 0.10 0.04 0.02 0.02 0.03 0.03 0.04 0.07 0.12 0.18 0.23 0.28 0.27 0.25 0.24 0.29 0.37 0.61 0.90 1.14 1.50 1.55 1.10 0.64 0.36
0.00 0.00 0.00 0.00 0.00 0.01 0.02 0.05 0.07 0.08 0.10 0.14 0.16 0.16 0.16 0.15 0.14 0.14 0.14 0.08 0.04 0.02 0.02 0.03 0.04 0.07 0.10 0.14 0.19 0.23 0.22 0.24 0.27 0.31 0.29 0.34 0.56 0.92 1.35 1.69 1.55 0.93 0.51
0.01 0.00 0.00 0.00 0.00 0.01 0.03 0.05 0.08 0.08 0.11 0.14 0.14 0.15 0.14 0.11 0.11 0.13 0.14 0.15 0.11 0.04 0.02 0.02 0.03 0.06 0.10 0.14 0.18 0.21 0.19 0.21 0.24 0.27 0.25 0.25 0.31 0.50 0.90 1.46 1.86 1.64 0.98
0.01 0.01 0.01 0.01 0.01 0.03 0.04 0.06 0.08 0.10 0.13 0.14 0.15 0.15 0.16 0.15 0.13 0.13 0.14 0.17 0.20 0.14 0.05 0.02 0.04 0.06 0.09 0.15 0.19 0.19 0.19 0.20 0.20 0.21 0.22 0.21 0.24 0.31 0.48 0.85 1.31 1.77 1.72
0.01 0.01 0.01 0.02 0.03 0.05 0.07 0.08 0.09 0.11 0.14 0.16 0.19 0.21 0.23 0.25 0.24 0.21 0.19 0.18 0.19 0.20 0.12 0.03 0.04 0.07 0.13 0.16 0.21 0.18 0.20 0.22 0.19 0.18 0.18 0.20 0.22 0.29 0.40 0.57 0.87 1.22 1.57
0.01 0.01 0.03 0.05 0.07 0.10 0.11 0.12 0.14 0.18 0.20 0.20 0.24 0.31 0.35 0.37 0.40 0.37 0.33 0.28 0.23 0.21 0.17 0.05 0.02 0.05 0.14 0.19 0.21 0.20 0.22 0.20 0.17 0.17 0.16 0.17 0.20 0.25 0.35 0.46 0.62 0.86 1.17
0.01 0.02 0.06 0.11 0.14 0.17 0.16 0.16 0.19 0.29 0.40 0.40 0.37 0.38 0.40 0.43 0.47 0.47 0.47 0.42 0.31 0.23 0.19 0.12 0.05 0.04 0.09 0.19 0.25 0.24 0.23 0.21 0.17 0.16 0.16 0.16 0.17 0.21 0.29 0.38 0.47 0.61 0.86
0.01 0.02 0.08 0.18 0.24 0.27 0.26 0.25 0.29 0.35 0.49 0.60 0.62 0.61 0.56 0.51 0.51 0.52 0.54 0.50 0.40 0.30 0.23 0.17 0.09 0.05 0.08 0.17 0.28 0.32 0.29 0.24 0.20 0.19 0.17 0.16 0.16 0.18 0.22 0.27 0.34 0.42 0.54
0.02 0.04 0.08 0.18 0.28 0.38 0.44 0.48 0.54 0.51 0.50 0.60 0.68 0.73 0.74 0.74 0.68 0.61 0.57 0.52 0.47 0.38 0.29 0.22 0.16 0.10 0.09 0.17 0.30 0.37 0.34 0.28 0.25 0.21 0.20 0.18 0.17 0.16 0.16 0.15 0.17 0.24 0.38
0.02 0.04 0.06 0.10 0.19 0.45 0.71 0.72 0.71 0.58 0.44 0.41 0.46 0.52 0.63 0.76 0.77 0.75 0.72 0.60 0.51 0.47 0.40 0.31 0.24 0.19 0.16 0.20 0.31 0.39 0.43 0.40 0.33 0.28 0.24 0.18 0.15 0.11 0.11 0.13 0.16 0.20 0.27
0.02 0.03 0.03 0.05 0.12 0.39 0.72 0.71 0.53 0.32 0.22 0.24 0.29 0.31 0.35 0.50 0.57 0.62 0.70 0.65 0.61 0.60 0.58 0.49 0.38 0.29 0.23 0.25 0.32 0.43 0.49 0.51 0.44 0.33 0.31 0.27 0.20 0.14 0.10 0.08 0.12 0.14 0.17
0.01 0.03 0.02 0.01 0.04 0.24 0.57 0.58 0.34 0.12 0.10 0.12 0.16 0.17 0.19 0.29 0.35 0.34 0.42 0.45 0.51 0.60 0.69 0.69 0.64 0.52 0.36 0.28 0.32 0.41 0.47 0.51 0.50 0.46 0.43 0.45 0.39 0.26 0.16 0.13 0.15 0.14 0.14
0.01 0.02 0.02 0.00 0.01 0.10 0.45 0.53 0.27 0.07 0.06 0.09 0.12 0.11 0.08 0.14 0.24 0.23 0.24 0.31 0.39 0.51 0.70 0.79 0.83 0.77 0.59 0.42 0.36 0.46 0.54 0.52 0.55 0.63 0.63 0.66 0.63 0.44 0.29 0.22 0.20 0.16 0.14
0.00 0.00 0.01 0.00 0.00 0.03 0.30 0.54 0.31 0.06 0.05 0.07 0.11 0.13 0.07 0.05 0.13 0.10 0.10 0.17 0.22 0.34 0.47 0.62 0.67 0.65 0.61 0.58 0.53 0.53 0.62 0.61 0.69 0.84 0.82 0.80 0.84 0.68 0.50 0.41 0.34 0.24 0.18
0.00 0.00 0.00 0.00 0.00 0.01 0.14 0.48 0.44 0.09 0.04 0.06 0.07 0.09 0.12 0.09 0.08 0.05 0.03 0.06 0.12 0.18 0.24 0.30 0.36 0.40 0.45 0.49 0.56 0.65 0.76 0.76 0.81 0.97 0.92 0.81 0.89 0.81 0.77 0.68 0.46 0.29 0.22